FW9229 Weather Reports


time (UTC)temp
C
wind
direction
speed
KPH
gust
KPH
rain 1hr
cm
rain 24hr
cm
rain mn
cm
humidity
%
barometer
mb
20260509091015 21 0 0.0 8.0 0.00 0.00 0.00 90 1007.3
20260509090517 21 0 3.2 8.0 0.00 0.00 0.00 90 1006.8
20260509090039 21 0 0.0 20.9 0.00 0.00 0.00 90 1006.5
20260509085512 21 229 4.8 20.9 0.00 0.00 0.00 90 1006.2
20260509085014 21 201 4.8 19.3 0.00 0.00 0.00 90 1006.2
20260509084532 21 171 6.4 17.7 0.00 0.00 0.00 90 1006.4
20260509084013 21 188 6.4 17.7 0.00 0.00 0.00 89 1006.7
20260509083511 21 0 4.8 17.7 0.00 0.00 0.00 89 1007.0
20260509083046 21 179 4.8 14.5 0.00 0.00 0.00 89 1007.4
20260509082516 21 173 4.8 14.5 0.00 0.00 0.00 89 1007.8
20260509082014 21 230 4.8 14.5 0.00 0.00 0.00 89 1007.7
20260509081532 21 214 3.2 14.5 0.00 0.00 0.00 89 1008.1
20260509081014 21 233 3.2 14.5 0.00 0.00 0.00 88 1008.7
20260509080516 21 206 0.0 8.0 0.00 0.00 0.00 88 1008.9
20260509080034 21 0 1.6 8.0 0.00 0.00 0.00 88 1008.9
20260509075514 21 189 0.0 8.0 0.00 0.00 0.00 88 1009.0
20260509075014 21 190 0.0 6.4 0.00 0.00 0.00 88 1009.2
20260509074536 21 190 1.6 12.9 0.00 0.00 0.00 88 1009.2
20260509074016 21 208 3.2 12.9 0.00 0.00 0.00 88 1009.4
20260509073513 21 210 1.6 8.0 0.00 0.00 0.00 88 1009.6
20260509073035 21 219 0.0 9.7 0.00 0.00 0.00 88 1009.6
20260509072515 21 210 1.6 9.7 0.00 0.00 0.00 88 1009.8
20260509072015 21 0 1.6 8.0 0.00 0.00 0.00 88 1010.0
20260509071541 21 0 0.0 6.4 0.00 0.00 0.00 88 1010.1
20260509071014 21 0 0.0 0.0 0.00 0.00 0.00 88 1010.1
20260509070516 21 0 0.0 0.0 0.00 0.00 0.00 88 1010.2
20260509070033 21 0 0.0 0.0 0.00 0.00 0.00 88 1010.1
20260509065515 21 0 0.0 0.0 0.00 0.00 0.00 87 1010.2
20260509065012 21 0 0.0 1.6 0.00 0.00 0.00 87 1010.1
20260509064532 21 0 0.0 3.2 0.00 0.00 0.00 87 1009.9
20260509064013 21 0 0.0 4.8 0.00 0.00 0.00 87 1009.9
20260509063516 21 0 0.0 4.8 0.00 0.00 0.00 87 1009.6
20260509063034 21 0 0.0 6.4 0.00 0.00 0.00 86 1009.8
20260509062514 21 200 0.0 6.4 0.00 0.00 0.00 86 1009.9
20260509062016 21 0 0.0 3.2 0.00 0.00 0.00 86 1010.0
20260509061535 21 0 0.0 4.8 0.00 0.00 0.00 85 1010.0
20260509061019 21 0 0.0 4.8 0.00 0.00 0.00 85 1009.7
20260509060515 21 0 0.0 3.2 0.00 0.00 0.00 84 1010.0
20260509060040 21 0 0.0 0.0 0.00 0.00 0.00 84 1010.1
20260509055516 21 0 0.0 0.0 0.00 0.00 0.00 84 1010.5
20260509055013 21 0 0.0 0.0 0.00 0.00 0.00 84 1010.4
20260509054533 22 0 0.0 0.0 0.00 0.00 0.00 84 1010.7
20260509054012 22 0 0.0 3.2 0.00 0.00 0.00 84 1010.5
20260509053511 22 0 0.0 3.2 0.00 0.00 0.00 84 1010.3
20260509053046 22 0 0.0 0.0 0.00 0.00 0.00 84 1010.7
20260509052511 22 0 0.0 1.6 0.00 0.00 0.00 84 1011.1
20260509052012 22 0 0.0 1.6 0.00 0.00 0.00 83 1011.4
20260509051535 22 0 0.0 1.6 0.00 0.00 0.00 83 1011.2
20260509051011 22 0 0.0 1.6 0.00 0.00 0.00 83 1010.6
20260509050513 22 0 0.0 8.0 0.00 0.00 0.00 83 1010.1
20260509050030 22 0 0.0 8.0 0.00 0.00 0.00 83 1009.8
20260509045519 22 204 0.0 6.4 0.00 0.00 0.00 82 1009.8
20260509045012 22 0 0.0 9.7 0.00 0.00 0.00 82 1009.4
20260509044530 22 222 1.6 9.7 0.00 0.00 0.00 82 1009.3
20260509044014 22 207 1.6 8.0 0.00 0.00 0.00 81 1009.3
20260509043513 22 0 0.0 11.3 0.00 0.00 0.00 81 1009.8
20260509043032 22 0 1.6 11.3 0.00 0.00 0.00 81 1009.6
20260509042512 22 0 0.0 9.7 0.00 0.00 0.00 81 1009.6
20260509042018 22 225 1.6 9.7 0.00 0.00 0.00 81 1009.6
20260509041533 22 171 0.0 6.4 0.00 0.00 0.00 81 1009.5
20260509041015 22 131 0.0 6.4 0.00 0.00 0.00 81 1009.8
20260509040514 22 0 0.0 6.4 0.00 0.00 0.00 81 1009.9
20260509040032 22 0 0.0 4.8 0.00 0.00 0.00 81 1009.7
20260509035511 22 0 0.0 0.0 0.00 0.00 0.00 81 1010.1
20260509035012 22 0 0.0 1.6 0.00 0.00 0.00 81 1010.4
20260509034537 22 0 0.0 1.6 0.00 0.00 0.00 81 1010.3
20260509034013 22 0 0.0 0.0 0.00 0.00 0.00 81 1010.2
20260509033512 22 0 0.0 0.0 0.00 0.00 0.00 81 1010.1
20260509033034 22 0 0.0 3.2 0.00 0.00 0.00 81 1009.9
20260509032514 22 0 0.0 3.2 0.00 0.00 0.00 81 1009.8
20260509032014 22 0 0.0 1.6 0.00 0.00 0.00 81 1009.8
20260509031549 22 0 0.0 1.6 0.00 0.00 0.00 81 1009.9
20260509031012 22 0 0.0 0.0 0.00 0.00 0.00 81 1009.9
20260509030515 22 0 0.0 4.8 0.00 0.00 0.00 81 1009.9
20260509030054 22 0 0.0 12.9 0.00 0.00 0.00 81 1009.6
20260509025512 22 0 1.6 12.9 0.00 0.00 0.00 80 1009.4
20260509025014 22 0 0.0 8.0 0.00 0.00 0.00 81 1009.3
20260509024538 22 0 1.6 11.3 0.00 0.00 0.00 80 1009.3
20260509024014 22 214 4.8 11.3 0.00 0.00 0.00 80 1009.1
20260509023515 22 200 4.8 11.3 0.00 0.00 0.00 80 1008.9
20260509023036 22 209 1.6 8.0 0.00 0.00 0.00 80 1008.9
20260509022514 22 0 1.6 9.7 0.00 0.00 0.00 80 1008.7
20260509022017 22 196 1.6 11.3 0.00 0.00 0.00 80 1008.7
20260509021538 22 0 3.2 11.3 0.00 0.00 0.00 80 1008.7
20260509021014 22 207 1.6 8.0 0.00 0.00 0.00 80 1008.7
20260509020515 22 0 0.0 8.0 0.00 0.00 0.00 79 1008.7
20260509020032 22 174 3.2 9.7 0.00 0.00 0.00 79 1008.7
20260509015514 22 135 1.6 9.7 0.00 0.00 0.00 79 1008.7
20260509015015 22 209 1.6 8.0 0.00 0.00 0.00 79 1008.6
20260509014534 22 0 3.2 8.0 0.00 0.00 0.00 78 1008.7
20260509014018 23 0 1.6 6.4 0.00 0.00 0.00 78 1008.7
20260509013513 23 0 0.0 9.7 0.00 0.00 0.00 77 1008.7
20260509013030 22 0 1.6 9.7 0.00 0.00 0.00 76 1008.6
20260509012516 23 0 0.0 6.4 0.00 0.00 0.00 76 1008.5
20260509012019 23 177 0.0 8.0 0.00 0.00 0.00 76 1008.5
20260509011535 23 177 3.2 9.7 0.00 0.00 0.00 75 1008.5
20260509011014 23 206 1.6 9.7 0.00 0.00 0.00 75 1008.4
20260509010515 23 205 1.6 9.7 0.00 0.00 0.00 75 1008.2
20260509010032 23 201 0.0 9.7 0.00 0.00 0.00 75 1008.2
20260509005514 23 0 0.0 9.7 0.00 0.00 0.00 74 1008.1
20260509005014 23 0 3.2 12.9 0.00 0.00 0.00 74 1008.0
20260509004548 23 160 4.8 12.9 0.00 0.00 0.00 74 1008.1
20260509004018 23 0 1.6 11.3 0.00 0.00 0.00 73 1008.0
20260509003515 23 172 3.2 14.5 0.00 0.00 0.00 73 1008.0
20260509003036 23 188 1.6 14.5 0.00 0.00 0.00 73 1007.8
20260509002514 23 181 3.2 11.3 0.00 0.00 0.00 73 1007.9
20260509002016 23 0 1.6 11.3 0.00 0.00 0.00 72 1007.9
20260509001532 23 226 3.2 14.5 0.00 0.00 0.00 72 1007.8
20260509001015 23 146 4.8 14.5 0.00 0.00 0.00 72 1007.9
20260509000515 23 218 3.2 11.3 0.00 0.00 0.00 72 1008.0
20260509000034 23 183 0.0 12.9 0.00 0.00 0.00 71 1008.1
20260508235518 23 173 4.8 12.9 0.00 0.00 0.00 71 1008.1
20260508235017 23 185 3.2 12.9 0.00 0.00 0.00 71 1008.3
20260508234533 24 0 0.0 11.3 0.00 0.00 0.00 70 1008.2
20260508234014 24 172 4.8 11.3 0.00 0.00 0.00 70 1008.3
20260508233518 24 0 1.6 9.7 0.00 0.00 0.00 70 1008.3
20260508233032 24 201 1.6 9.7 0.00 0.00 0.00 71 1008.4
20260508232515 24 0 3.2 9.7 0.00 0.00 0.00 70 1008.3
20260508232016 23 185 4.8 9.7 0.00 0.00 0.00 70 1008.4
20260508231534 23 218 4.8 17.7 0.00 0.00 0.00 69 1008.5
20260508231018 24 193 6.4 17.7 0.00 0.00 0.00 69 1008.5
20260508230517 24 171 4.8 14.5 0.00 0.00 0.00 69 1008.5
20260508230033 24 168 3.2 14.5 0.00 0.00 0.00 69 1008.5
20260508225516 24 208 6.4 12.9 0.00 0.00 0.00 69 1008.4
20260508225021 24 130 3.2 11.3 0.00 0.00 0.00 69 1008.6
20260508224543 24 0 3.2 14.5 0.00 0.00 0.00 68 1008.6
20260508224017 24 199 3.2 14.5 0.00 0.00 0.00 68 1008.6
20260508223516 24 210 6.4 14.5 0.00 0.00 0.00 69 1008.5
20260508223046 24 181 4.8 14.5 0.00 0.00 0.00 69 1008.5
20260508222513 24 231 3.2 14.5 0.00 0.00 0.00 69 1008.5
20260508222017 24 159 4.8 17.7 0.00 0.00 0.00 69 1008.3
20260508221532 24 217 6.4 17.7 0.00 0.00 0.00 68 1008.3
20260508221016 24 199 6.4 17.7 0.00 0.00 0.00 68 1008.3
20260508220515 25 183 4.8 16.1 0.00 0.00 0.00 68 1008.3
20260508220039 24 209 3.2 16.1 0.00 0.00 0.00 69 1008.2
20260508215517 24 171 4.8 16.1 0.00 0.00 0.00 68 1008.2
20260508215015 24 210 3.2 12.9 0.00 0.00 0.00 68 1008.4
20260508214531 24 191 3.2 14.5 0.00 0.00 0.00 68 1008.3
20260508214016 24 243 3.2 14.5 0.00 0.00 0.00 67 1008.5
20260508213516 25 216 1.6 17.7 0.00 0.00 0.00 67 1008.5
20260508213033 25 144 3.2 17.7 0.00 0.00 0.00 64 1008.5
20260508212517 25 160 6.4 16.1 0.00 0.00 0.00 64 1008.4
20260508212014 26 173 3.2 16.1 0.00 0.00 0.00 66 1008.5
20260508211535 25 213 6.4 16.1 0.00 0.00 0.00 64 1008.6
20260508211016 25 114 4.8 12.9 0.00 0.00 0.00 67 1008.7
20260508210516 24 179 6.4 12.9 0.00 0.00 0.00 68 1008.9
20260508210033 23 202 1.6 9.7 0.00 0.00 0.00 69 1009.1
20260508205517 23 215 0.0 8.0 0.00 0.00 0.00 69 1009.5
20260508205017 23 217 1.6 12.9 0.00 0.00 0.00 68 1009.8
20260508204534 23 198 3.2 12.9 0.00 0.00 0.00 69 1010.0
20260508204013 23 169 3.2 8.0 0.00 0.00 0.00 68 1010.1
20260508203512 23 196 1.6 9.7 0.00 0.00 0.00 68 1010.4
20260508203030 23 216 3.2 12.9 0.00 0.00 0.00 68 1010.5
20260508202514 23 177 3.2 16.1 0.00 0.00 0.00 67 1010.6
20260508202021 24 183 4.8 16.1 0.00 0.00 0.00 67 1010.5
20260508201534 24 239 3.2 12.9 0.00 0.00 0.00 67 1010.6
20260508201016 24 0 0.0 9.7 0.00 0.00 0.00 66 1010.4
20260508200515 24 0 1.6 12.9 0.00 0.00 0.00 66 1010.4
20260508200033 24 198 6.4 12.9 0.00 0.00 0.00 66 1010.4
20260508195516 24 212 3.2 11.3 0.00 0.00 0.00 66 1010.3
20260508195014 25 217 4.8 16.1 0.00 0.00 0.00 66 1010.5
20260508194538 24 173 4.8 16.1 0.00 0.00 0.00 66 1010.4
20260508194013 24 207 4.8 12.9 0.00 0.00 0.00 66 1010.5
20260508193512 24 200 6.4 12.9 0.00 0.00 0.00 66 1010.6
20260508193030 25 157 3.2 16.1 0.00 0.00 0.00 65 1010.7
20260508192514 25 213 6.4 16.1 0.00 0.00 0.00 64 1010.6
20260508192016 25 181 4.8 11.3 0.00 0.00 0.00 64 1010.7
20260508191537 25 219 3.2 19.3 0.00 0.00 0.00 64 1010.7
20260508191014 25 0 3.2 19.3 0.00 0.00 0.00 64 1010.6
20260508190511 25 209 4.8 14.5 0.00 0.00 0.00 64 1010.7
20260508190032 25 189 4.8 14.5 0.00 0.00 0.00 65 1010.7
20260508185513 25 209 6.4 12.9 0.00 0.00 0.00 64 1010.7
20260508185012 25 222 1.6 11.3 0.00 0.00 0.00 64 1010.9
20260508184532 25 182 1.6 9.7 0.00 0.00 0.00 64 1010.7
20260508184013 25 186 1.6 12.9 0.00 0.00 0.00 64 1010.8
20260508183519 25 172 4.8 12.9 0.00 0.00 0.00 63 1011.0
20260508183034 25 0 3.2 9.7 0.00 0.00 0.00 64 1010.8
20260508182515 25 197 1.6 9.7 0.00 0.00 0.00 63 1011.0
20260508182015 25 216 3.2 9.7 0.00 0.00 0.00 65 1011.2
20260508181533 25 210 4.8 9.7 0.00 0.00 0.00 63 1011.4
20260508181011 25 0 3.2 11.3 0.00 0.00 0.00 63 1011.3
20260508180512 25 263 3.2 11.3 0.00 0.00 0.00 62 1011.4
20260508180031 25 204 0.0 12.9 0.00 0.00 0.00 63 1011.4
20260508175514 25 179 4.8 12.9 0.00 0.00 0.00 62 1011.4
20260508175014 25 153 1.6 11.3 0.00 0.00 0.00 62 1011.4
20260508174533 24 182 4.8 11.3 0.00 0.00 0.00 63 1011.7
20260508174020 24 203 4.8 11.3 0.00 0.00 0.00 62 1011.8
20260508173511 24 210 6.4 11.3 0.00 0.00 0.00 63 1011.7
20260508173031 23 167 3.2 9.7 0.00 0.00 0.00 63 1011.7
20260508172516 23 0 3.2 9.7 0.00 0.00 0.00 64 1011.8
20260508172016 23 194 3.2 12.9 0.00 0.00 0.00 64 1011.9
20260508171532 23 201 3.2 12.9 0.00 0.00 0.00 64 1012.0
20260508171010 22 222 3.2 12.9 0.00 0.00 0.00 66 1012.2
20260508170513 22 193 4.8 12.9 0.00 0.00 0.00 67 1012.5
20260508170031 22 212 1.6 8.0 0.00 0.00 0.00 67 1012.6
20260508165513 22 229 1.6 12.9 0.00 0.00 0.00 67 1013.0
20260508165016 22 127 4.8 14.5 0.00 0.00 0.00 66 1013.0
20260508164530 22 227 6.4 14.5 0.00 0.00 0.00 66 1013.0
20260508164014 22 175 4.8 14.5 0.00 0.00 0.00 67 1013.1
20260508163513 22 178 6.4 12.9 0.00 0.00 0.00 67 1013.3
20260508163035 22 217 4.8 12.9 0.00 0.00 0.00 67 1013.4
20260508162514 21 173 3.2 11.3 0.00 0.00 0.00 67 1013.3
20260508162014 21 201 4.8 14.5 0.00 0.00 0.00 67 1013.4
20260508161532 21 220 4.8 16.1 0.00 0.00 0.00 68 1013.5
20260508161012 21 193 4.8 16.1 0.00 0.00 0.00 68 1013.5
20260508160515 21 203 0.0 9.7 0.00 0.00 0.00 70 1013.6
20260508160032 20 220 3.2 16.1 0.00 0.00 0.00 69 1013.6
20260508155516 20 226 4.8 16.1 0.00 0.00 0.00 69 1013.5
20260508155012 20 0 1.6 9.7 0.00 0.00 0.00 69 1013.7
20260508154531 20 181 1.6 11.3 0.00 0.00 0.00 69 1014.0
20260508154015 20 178 4.8 11.3 0.00 0.00 0.00 69 1013.8
20260508153515 20 202 4.8 11.3 0.00 0.00 0.00 69 1013.9
20260508153038 20 185 4.8 11.3 0.00 0.00 0.00 70 1013.8
20260508152516 20 169 3.2 9.7 0.00 0.00 0.00 69 1013.9
20260508152015 20 185 3.2 11.3 0.00 0.00 0.00 69 1014.1
20260508151530 20 202 4.8 12.9 0.00 0.00 0.00 69 1014.0
20260508151016 20 218 3.2 12.9 0.00 0.00 0.00 69 1014.0
20260508150514 20 195 3.2 11.3 0.00 0.00 0.00 69 1013.9
20260508150050 20 214 3.2 8.0 0.00 0.00 0.00 69 1013.9
20260508145513 20 199 1.6 11.3 0.00 0.00 0.00 69 1013.9
20260508145012 20 171 3.2 11.3 0.00 0.00 0.00 68 1013.8
20260508144531 20 200 1.6 11.3 0.00 0.00 0.00 69 1013.8
20260508144013 20 186 3.2 12.9 0.00 0.00 0.00 69 1013.8
20260508143514 20 200 4.8 12.9 0.00 0.00 0.00 69 1013.8
20260508143047 19 194 3.2 11.3 0.00 0.00 0.00 70 1013.9
20260508142514 19 220 1.6 9.7 0.00 0.00 0.00 72 1013.9
20260508142014 19 0 1.6 9.7 0.00 0.00 0.00 73 1014.2
20260508141532 18 209 3.2 11.3 0.00 0.00 0.00 73 1014.3
20260508141013 18 184 4.8 14.5 0.00 0.00 0.00 73 1014.1
20260508140516 18 153 3.2 16.1 0.00 0.00 0.00 73 1014.3
20260508140032 18 166 6.4 16.1 0.00 0.00 0.00 74 1014.2
20260508135517 18 0 1.6 9.7 0.00 0.00 0.00 76 1014.2
20260508135012 18 0 1.6 9.7 0.00 0.00 0.00 75 1014.1
20260508134534 18 0 1.6 8.0 0.00 0.00 0.00 76 1014.1
20260508134012 18 158 0.0 8.0 0.00 0.00 0.00 76 1014.1
20260508133514 17 152 0.0 4.8 0.00 0.00 0.00 77 1014.1
20260508133032 17 0 0.0 4.8 0.00 0.00 0.00 77 1014.1
20260508132513 17 0 0.0 11.3 0.00 0.00 0.00 77 1014.0
20260508132013 17 0 1.6 11.3 0.00 0.00 0.00 78 1014.0
20260508131533 17 0 0.0 4.8 0.00 0.00 0.00 78 1014.2
20260508131015 17 0 0.0 3.2 0.00 0.00 0.00 78 1014.4
20260508130512 17 0 0.0 8.0 0.00 0.00 0.00 78 1014.2
20260508130032 17 0 0.0 8.0 0.00 0.00 0.00 79 1014.2
20260508125514 17 0 0.0 1.6 0.00 0.00 0.00 79 1014.1
20260508125013 17 0 0.0 0.0 0.00 0.00 0.00 79 1014.2
20260508124533 17 0 0.0 0.0 0.00 0.00 0.00 80 1014.4
20260508124011 17 0 0.0 0.0 0.00 0.00 0.00 80 1014.2
20260508123514 17 0 0.0 0.0 0.00 0.00 0.00 80 1014.3
20260508123035 17 0 0.0 4.8 0.00 0.00 0.00 80 1014.6
20260508122513 17 0 0.0 4.8 0.00 0.00 0.00 80 1014.4
20260508122015 17 0 0.0 1.6 0.00 0.00 0.00 79 1014.2
20260508121532 17 0 0.0 0.0 0.00 0.00 0.00 79 1014.3
20260508121015 17 0 0.0 4.8 0.00 0.00 0.00 79 1014.2
20260508120511 17 0 0.0 4.8 0.00 0.00 0.00 79 1014.4
20260508120032 17 232 0.0 0.0 0.00 0.00 0.00 79 1014.3
20260508115512 17 0 0.0 0.0 0.00 0.00 0.00 79 1014.5
20260508115012 17 0 0.0 0.0 0.00 0.00 0.00 79 1014.4
20260508114534 17 0 0.0 6.4 0.00 0.00 0.00 79 1014.5
20260508114014 17 0 0.0 6.4 0.00 0.00 0.00 78 1014.4
20260508113514 17 169 0.0 8.0 0.00 0.00 0.00 79 1014.4
20260508113030 17 0 3.2 8.0 0.00 0.00 0.00 79 1014.3
20260508112512 17 0 0.0 8.0 0.00 0.00 0.00 79 1014.2
20260508112011 17 0 0.0 8.0 0.00 0.00 0.00 80 1014.1
20260508111533 17 0 0.0 3.2 0.00 0.00 0.00 80 1013.9
20260508111014 17 0 0.0 3.2 0.00 0.00 0.00 80 1014.0
20260508110514 17 239 0.0 1.6 0.00 0.00 0.00 80 1014.2
20260508110030 17 0 0.0 0.0 0.00 0.00 0.00 80 1014.5
20260508105512 17 0 0.0 3.2 0.00 0.00 0.00 80 1015.0
20260508105017 17 0 0.0 4.8 0.00 0.00 0.00 80 1015.0
20260508104533 17 0 0.0 4.8 0.00 0.00 0.00 80 1014.5
20260508104014 17 0 0.0 0.0 0.00 0.00 0.00 80 1014.4
20260508103511 17 0 0.0 0.0 0.00 0.00 0.00 80 1014.1
20260508103031 17 0 0.0 0.0 0.00 0.00 0.00 79 1013.8
20260508102513 17 0 0.0 1.6 0.00 0.00 0.00 79 1013.6
20260508102013 17 0 0.0 1.6 0.00 0.00 0.00 79 1013.4
20260508101540 17 0 0.0 4.8 0.00 0.00 0.00 79 1013.5
20260508101013 17 0 0.0 4.8 0.00 0.00 0.00 79 1013.5
20260508100511 17 0 0.0 4.8 0.00 0.00 0.00 79 1013.5
20260508100034 17 200 0.0 4.8 0.00 0.00 0.00 78 1013.5
20260508095513 17 0 0.0 6.4 0.00 0.00 0.00 78 1013.5
20260508095013 17 0 0.0 8.0 0.00 0.00 0.00 78 1013.6
20260508094532 17 0 0.0 8.0 0.00 0.00 0.00 78 1013.3
20260508094019 17 164 0.0 3.2 0.00 0.00 0.00 78 1013.5
20260508093513 17 0 0.0 3.2 0.00 0.00 0.00 78 1013.6
20260508093036 17 0 0.0 3.2 0.00 0.00 0.00 78 1013.6
20260508092513 17 0 0.0 0.0 0.00 0.00 0.00 78 1013.7
20260508092011 17 0 0.0 0.0 0.00 0.00 0.00 78 1013.7
20260508091534 17 0 0.0 0.0 0.00 0.00 0.00 78 1013.7